Regional Weather Roundup
Issued by NWS

Home | Current Version | Previous Version | Graphics & Text | Print | Product List | Glossary Off
Versions: 1 2 3 4 5 6 7 8 9 10 11 12 13 14 15 16 17 18 19 20 21 22 23 24 25 26 27 28 29 30 31 32 33 34 35 36 37 38 39 40 41 42 43 44 45 46 47 48 49 50

000
ASUS43 KMKX 211500
RWRWI

WISCONSIN REGIONAL WEATHER ROUNDUP
NATIONAL WEATHER SERVICE MILWAUKEE/SULLIVAN WI
1000 AM CDT MON AUG 21 2017

NOTE: "FAIR" INDICATES FEW OR NO CLOUDS BELOW 12,000 FEET WITH NO
SIGNIFICANT WEATHER AND/OR OBSTRUCTIONS TO VISIBILITY.

WIZ001-002-006>008-014>016-023>028-211600-
NORTHWEST WISCONSIN

CITY           SKY/WX    TMP DP  RH WIND       PRES   REMARKS
SUPERIOR ARPT    N/A     65  59  78 CALM      30.04F
ASHLAND        CLOUDY    70  59  68 S6        30.05F
HAYWARD        MOSUNNY   69  59  70 VRB5      30.06F
SIREN          SUNNY     69  56  64 SE6       30.03F
CUMBERLAND     CLOUDY    66  55  68 SE7       30.06F
RICE LAKE      CLOUDY    67  59  75 SE3       30.07F
CHETEK         CLOUDY    67  61  81 MISG      30.07R
LADYSMITH      CLOUDY    71  59  66 E6        30.07S
EAU CLAIRE     TSTM      66  63  90 VRB5G18   30.04R
MENOMONIE      CLOUDY    65  64  99 CALM      30.05F
NEW RICHMOND   PTSUNNY   68  59  73 E7        30.03F
OSCEOLA        MOSUNNY   70  60  70 SE9       30.05F
$$

WIZ003>005-009-010-017-018-211600-
NORTH CENTRAL WISCONSIN

CITY           SKY/WX    TMP DP  RH WIND       PRES   REMARKS
MANITOWISH WTR PTSUNNY   68  55  63 CALM      30.10R
ARBOR VITAE    SUNNY     72  57  59 E5        30.09S
WOODRUFF       SUNNY     72  57  59 E5        30.09S
RHINELANDER    CLOUDY    71  57  61 E3        30.08F
EAGLE RIVER    SUNNY     70  53  54 S5        30.08F
LAND O LAKES   CLOUDY    68  56  65 CALM      30.09F
PHILLIPS       PTSUNNY   68  59  72 SE6       30.08F
TOMAHAWK         N/A     70  58  67 CALM      30.08F
MEDFORD        CLOUDY    68  61  79 E8        30.07F
MERRILL        PTSUNNY   70  63  78 CALM      30.09R
$$

WIZ029-030-035-036-043>047-211600-
CENTRAL WISCONSIN

CITY           SKY/WX    TMP DP  RH WIND       PRES   REMARKS
WAUSAU         LGT RAIN  67  63  87 E6        30.05F
MOSINEE        CLOUDY    66  66 100 CALM      30.08S FOG
MARSHFIELD     CLOUDY    73  67  81 E6        30.05F
STEVENS POINT  CLOUDY    67  67 100 CALM      30.07F
WAUPACA        CLOUDY    72  69  91 CALM      30.06F
WAUTOMA        CLOUDY    70  67  90 MISG      30.08S
WISC RAPIDS    CLOUDY    71  69  93 E5        30.06F
CAMP DOUGLAS   NOT AVBL
$$

WIZ011>013-019>022-031-037>040-048>050-211600-
NORTHEAST WISCONSIN

CITY           SKY/WX    TMP DP  RH WIND       PRES   REMARKS
ANTIGO         CLOUDY    68  61  76 E5        30.08F
SHAWANO        CLOUDY    74  66  74 NE3       30.06S
OCONTO         PTSUNNY   73  64  73 E5        30.04F
STURGEON BAY   CLOUDY    74  70  87 VRB5      30.06R
GREEN BAY      LGT RAIN  72  71  97 SW3       30.06S
MANITOWOC      NOT AVBL
APPLETON       CLOUDY    72  68  88 W5        30.06S
CLINTONVILLE   CLOUDY    70  66  88 CALM      30.06F
OSHKOSH        CLOUDY    74  67  78 VRB5      30.07R
$$

WIZ032>034-041-042-053>061-211600-
SOUTHWEST WISCONSIN

CITY           SKY/WX    TMP DP  RH WIND       PRES   REMARKS
LA CROSSE      CLOUDY    77  68  73 SE3       30.02F
SPARTA         CLOUDY    67  65  92 SE3       30.06S
VIROQUA        CLOUDY    68  68 100 CALM      30.06F
BOSCOBEL       CLOUDY    70  66  87 VRB3      30.04F
PRAIRIE DU CHI CLOUDY    72  66  81 SE8       30.04R
PLATTEVILLE    CLOUDY    70  70 100 E9        30.05F
$$

WIZ056-057-062-063-064-067-068-211600-
SOUTH CENTRAL WISCONSIN

CITY           SKY/WX    TMP DP  RH WIND       PRES   REMARKS
REEDSBURG      CLOUDY    69  69  99 CALM      30.09R
BARABOO/DELLS  CLOUDY    70  66  87 W5        30.09R
LONE ROCK      CLOUDY    69  68  96 SE3       30.06F
MINERAL POINT  CLOUDY    70  70 100 E6        30.06F FOG
MADISON        CLOUDY    71  67  87 SW6       30.09R
MIDDLETON      CLOUDY    71  71  99 W6        30.09R
WATERTOWN      CLOUDY    70  70 100 CALM      30.07S
MONROE         CLOUDY    70  68  94 W3        30.10S
JANESVILLE     PTSUNNY   73  73 100 W8        30.10R
$$

WIZ051-052-058>065-066-070>072-211600-
SOUTHEAST WISCONSIN

CITY           SKY/WX    TMP DP  RH WIND       PRES   REMARKS
MILWAUKEE      CLOUDY    79  69  71 W9        30.06R HX  81
WAUKESHA       SUNNY     73  68  83 W7        30.09S
MILWAUKEE/TIMM SUNNY     75  66  73 W7        30.07R
RACINE         CLOUDY    78  71  79 W9        30.07R HX  80
KENOSHA        CLOUDY    77  70  79 W8        30.07S
FOND DU LAC    CLOUDY    75  68  78 W3        30.07S
SHEBOYGAN      CLOUDY    76  70  82 NW8       30.06R
WEST BEND      CLOUDY    73  70  88 W7        30.07S
JUNEAU         CLOUDY    70  68  95 SW3       30.09S FOG
$$

LSZ147-162-211600-
LAKE SUPERIOR

STATION/POSITION TIME  TEMP    WIND        PRES    WAVE
                       AIR SEA DIR/SP/G            HT/PER
                 (UTC) (F)     (DEG/KT/KT) (MB)    (FT/S)
W MID LAKE BUOY  1350   61 59  250/  6/  8 1017.1F   0
DEVILS ISLAND    1400   62     220/  6/  7 1017.7F
SAXON HARBOR     1430   67      30/  4/  5 1017.6R
$$

LMZ867-665-643>646-211600-
LAKE MICHIGAN

STATION/POSITION TIME  TEMP    WIND        PRES    WAVE
                       AIR SEA DIR/SP/G            HT/PER
                 (UTC) (F)     (DEG/KT/KT) (MB)    (FT/S)
S GREEN BAY BUOY 1430   70 71  220/  4/  4 1017.3F
N MID LAKE BUOY  1350   68 67  240/  2/  4 1017.7F   1/ 4
NORTHPORT PIER   1440   73     310/  3/  4 1016.9F
KEWAUNEE LAKESHO 1424   74     270/  2/  4 1016.7
SHEBOYGAN LAKESH 1400   71        CALM     1017.0F
PORT WASHINGTON  1440   73     160/  2/  2 1018.6R
ATWATER BUOY     1309   70 70   60/  2/  2 1017.6F
MILWAUKEE LAKESH 1430   74      40/  1/  2   N/A
S MID LAKE BUOY  1350   72 72  220/  4/  6 1017.5F   1
KENOSHA   LAKESH 1400   76     260/  8/ 11 1017.6
$$

TC  - TEMPERATURE IN CELSIUS
VSB - VISIBILITY IN STATUTE MILES
WCI - WIND CHILL INDEX
HX  - HEAT INDEX





USA.gov is the U.S. government's official web portal to all federal, state and local government web resources and services.